Change the Weather History Date:

Saturday, October 18, 2014

  Actual Average Record
Temperature  
Mean Temperature 67 °F 66 °F  
Max Temperature 77 °F 79 °F 100 °F (1940)
Min Temperature 56 °F 54 °F 42 °F (1946)
Degree Days  
Heating Degree Days 0 1  
Month to date heating degree days 0 18  
Since 1 July heating degree days 0 24  
Cooling Degree Days 2 3  
Month to date cooling degree days 150 73  
Year to date cooling degree days 1846 1204  
Growing Degree Days 15 (Base 50)    
Moisture  
Dew Point 52 °F    
Average Humidity 63    
Maximum Humidity 83    
Minimum Humidity 43    
Precipitation  
Precipitation 0.00 in 0.03 in 0.27 in (2005)
Month to date precipitation 0.00 0.50  
Year to date precipitation 4.95 13.37  
Since 1 July precipitation 0.04 0.82  
Sea Level Pressure  
Sea Level Pressure 29.87 in    
Wind  
Wind Speed 3 mph (South)    
Max Wind Speed 12 mph    
Max Gust Speed 16 mph    
Visibility 10 miles    
Events      
T = Trace of Precipitation, MM = Missing Value Source: NWS Daily Summary

Daily Weather History Graph

Daily Weather History Graph

Search for Another Location

Airport or City:

Trip Planner

Search our weather history database for the weather conditions in past years. The results will help you decide how hot, cold, wet, or windy it might be!

Date:

Astronomy

Oct. 18, 2014 Rise Set
Actual Time 7:01 AM PDT 6:15 PM PDT
Civil Twilight 6:35 AM PDT 6:40 PM PDT
Nautical Twilight 6:06 AM PDT 7:09 PM PDT
Astronomical Twilight 5:37 AM PDT 7:38 PM PDT
Moon 2:16 AM PDT (10/18) 3:26 PM PDT (10/18)
Length of Visible Light 12h 04m
Length of Day
11h 14m
Waning Crescent, 23% of the Moon is Illuminated
Oct 18
Waning Crescent
Oct 23
New
Oct 30
First Quarter
Nov 6
Full
Nov 14
Last Quarter

Hourly Weather History & Observations

Time (PDT) Temp. Dew Point Humidity Pressure Visibility Wind Dir Wind Speed Gust Speed Precip Events Conditions
12:53 AM 62.1 °F 54.0 °F 75% 29.91 in 10.0 mi Calm Calm - N/A   Clear
1:53 AM 60.1 °F 52.0 °F 75% 29.91 in 10.0 mi West 4.6 mph - N/A   Clear
2:53 AM 60.1 °F 51.1 °F 72% 29.89 in 10.0 mi Calm Calm - N/A   Clear
3:53 AM 57.9 °F 51.1 °F 78% 29.88 in 10.0 mi Calm Calm - N/A   Clear
4:53 AM 57.9 °F 51.1 °F 78% 29.88 in 10.0 mi Calm Calm - N/A   Clear
5:53 AM 57.0 °F 50.0 °F 77% 29.89 in 10.0 mi Calm Calm - N/A   Clear
6:53 AM 55.9 °F 50.0 °F 80% 29.90 in 10.0 mi Calm Calm - N/A   Clear
7:53 AM 57.9 °F 51.1 °F 78% 29.92 in 10.0 mi Calm Calm - N/A   Clear
8:53 AM 62.1 °F 52.0 °F 70% 29.92 in 10.0 mi Calm Calm - N/A   Clear
9:53 AM 66.0 °F 53.1 °F 63% 29.91 in 10.0 mi Calm Calm - N/A   Clear
10:53 AM 69.1 °F 52.0 °F 54% 29.90 in 10.0 mi Calm Calm - N/A   Clear
11:53 AM 72.0 °F 50.0 °F 46% 29.88 in 10.0 mi Variable 3.5 mph - N/A   Clear
12:53 PM 73.9 °F 50.0 °F 43% 29.86 in 10.0 mi SE 5.8 mph - N/A   Clear
1:53 PM 75.9 °F 52.0 °F 43% 29.83 in 10.0 mi SSW 5.8 mph - N/A   Clear
2:53 PM 75.0 °F 54.0 °F 48% 29.81 in 10.0 mi SSE 10.4 mph - N/A   Clear
3:53 PM 75.0 °F 53.1 °F 46% 29.81 in 10.0 mi South 8.1 mph - N/A   Clear
4:53 PM 73.0 °F 53.1 °F 49% 29.80 in 10.0 mi South 8.1 mph - N/A   Clear
5:53 PM 71.1 °F 52.0 °F 51% 29.81 in 10.0 mi South 6.9 mph - N/A   Clear
6:53 PM 68.0 °F 50.0 °F 52% 29.82 in 10.0 mi South 5.8 mph - N/A   Clear
7:53 PM 66.9 °F 52.0 °F 59% 29.84 in 10.0 mi SSE 4.6 mph - N/A   Clear
8:53 PM 66.0 °F 54.0 °F 65% 29.85 in 10.0 mi Calm Calm - N/A   Clear
9:53 PM 64.9 °F 53.1 °F 65% 29.86 in 10.0 mi Calm Calm - N/A   Clear
10:53 PM 63.0 °F 52.0 °F 67% 29.86 in 10.0 mi Calm Calm - N/A   Clear
11:53 PM 62.1 °F 52.0 °F 70% 29.84 in 10.0 mi Calm Calm - N/A   Clear